Location: Stilling
(56.0622°N, 9.9882°E)
Time: 23:28:55
(UTC+00:00)

Cosmos 1980 - Pass Details

Date: 13 July 2020
Orbit: 839 x 847 km, 71.0° (Epoch: 14 August)

Event Time Altitude Azimuth Distance (km) Brightness Sun altitude
Rises 21:41:48 0° 229° (SW) 3,386 6.7 -9.2°
Reaches altitude 10° 21:44:17 10° 233° (SW) 2,455 6.0 -9.4°
Maximum altitude 21:49:50 57° 312° (NW) 986 4.4 -9.7°
Drops below altitude 10° 21:55:25 10° 31° (NNE) 2,472 6.7 -10.0°
Sets 21:57:56 0° 36° (NE) 3,411 7.4 -10.1°
